Weather in Gustomesovo

Russia / Kostroma Oblast     57°30′25″N   41°07′46″E
temp.,
°C
wind,
m/s
gust,
m/s
humid.,
%
clouds,
%
prec.,
mm/h
press.,
hPa
HPBL,
m
18 august, thu
thu1800:00+18ese37732 0.0 1021114
03:00+16e34804 0.0 102269
06:00+17e37804 0.0 1023158
09:00+24ese46530 0.0 1023606
12:00+27ese56410 0.0 10231811
15:00+28e56370 0.0 10221960
18:00+26ese57400 0.0 10231231
21:00+19e49620 0.0 1024123
19 august, fri
fri1900:00+17e411742 0.0 1025201
03:00+16e410857 0.0 1026206
06:00+15e511796 0.0 1028287
09:00+21ese693975 0.0 1029714
12:00+24ese792961 0.0 10291333
15:00+25ese792484 0.0 10291555
18:00+23ese68325 0.0 10291238
21:00+16ese410550 0.0 1029167
20 august, sat
sat2000:00+13ese411630 0.0 1030180
03:00+12e410690 0.0 1031159
06:00+12ese410660 0.0 1031201
09:00+21se693643 0.0 1031551
12:00+25se6727100 0.0 10301274
15:00+26se672398 0.0 10291603
18:00+23ese573196 0.0 1029573
21:00+16ese495341 0.0 1029133
21 august, sun
sun2100:00+14ese475911 0.0 102994
03:00+12se476647 0.0 1029108
06:00+12ese48667 0.0 1029146
09:00+21se573775 0.0 1029505
12:00+26se552520 0.0 10281535
15:00+27se5621100 0.0 10261909
18:00+25se4729100 0.0 1026309
21:00+18ese495791 0.0 1027131
22 august, mon
mon2200:00+17ese496577 0.0 1026137
03:00+17ese3869100 0.0 1027172
06:00+17ese387378 0.0 1027183
09:00+24se584698 0.0 1027561
12:00+28sse6734100 0.0 10271855
15:00+30sse6631100 0.0 10262674
18:00+28ese4736100 0.0 1026543
21:00+21se41258100 0.0 1026260